�������l�o���
Date,Time,MP-1(��Sv/h),MP-2(��Sv/h),MP-3(��Sv/h),MP-4(��Sv/h),MP-5(��Sv/h),MP-6(��Sv/h),MP-7(��Sv/h),MP-8(��Sv/h),����,����(m/s),���J
2021/11/20,00:00,0.592,0.893,0.564,1.093,0.764,0.359,0.623,0.586,���k��,5.6,��
2021/11/20,00:10,0.593,0.893,0.564,1.093,0.766,0.358,0.623,0.586,���k��,6.5,��
2021/11/20,00:20,0.594,0.890,0.565,1.093,0.766,0.359,0.623,0.587,��,6.8,��
2021/11/20,00:30,0.594,0.891,0.565,1.092,0.765,0.358,0.623,0.586,��,6.9,��
2021/11/20,00:40,0.592,0.892,0.565,1.092,0.765,0.358,0.622,0.587,���k��,7.6,��
2021/11/20,00:50,0.593,0.893,0.564,1.094,0.765,0.359,0.622,0.587,���k��,7.5,��
2021/11/20,01:00,0.594,0.891,0.566,1.093,0.766,0.359,0.623,0.585,���k��,7.4,��
2021/11/20,01:10,0.592,0.891,0.563,1.094,0.765,0.360,0.623,0.587,���k��,5.9,��
2021/11/20,01:20,0.593,0.891,0.565,1.092,0.765,0.358,0.623,0.585,���k��,5.6,��
2021/11/20,01:30,0.594,0.889,0.564,1.093,0.765,0.358,0.623,0.586,���k��,6.2,��
2021/11/20,01:40,0.592,0.892,0.564,1.092,0.766,0.357,0.623,0.587,���k��,5.8,��
2021/11/20,01:50,0.593,0.890,0.566,1.092,0.764,0.358,0.624,0.586,���k��,5.8,��
2021/11/20,02:00,0.594,0.893,0.563,1.093,0.765,0.357,0.624,0.585,���k��,5.6,��
2021/11/20,02:10,0.593,0.889,0.563,1.093,0.764,0.359,0.624,0.584,�k��,5.3,��
2021/11/20,02:20,0.594,0.892,0.565,1.093,0.765,0.358,0.624,0.585,�k��,4.6,��
2021/11/20,02:30,0.593,0.890,0.565,1.094,0.765,0.359,0.622,0.585,�k��,3.5,��
2021/11/20,02:40,0.593,0.892,0.565,1.094,0.766,0.359,0.622,0.585,�k��,3.6,��
2021/11/20,02:50,0.592,0.893,0.564,1.093,0.766,0.359,0.622,0.585,�k�k��,2.6,��
2021/11/20,03:00,0.592,0.892,0.563,1.095,0.765,0.358,0.623,0.585,�k��,2.0,��
2021/11/20,03:10,0.592,0.891,0.563,1.093,0.767,0.358,0.623,0.585,�k��,1.5,��
2021/11/20,03:20,0.593,0.891,0.564,1.092,0.765,0.358,0.622,0.584,�k��,2.3,��
2021/11/20,03:30,0.592,0.892,0.564,1.094,0.766,0.358,0.624,0.585,�k��,3.0,��
2021/11/20,03:40,0.593,0.891,0.565,1.093,0.764,0.358,0.623,0.585,�k��,2.6,��
2021/11/20,03:50,0.594,0.892,0.565,1.095,0.765,0.358,0.622,0.585,�k��,2.6,��
2021/11/20,04:00,0.592,0.892,0.564,1.094,0.766,0.360,0.623,0.585,�k��,2.6,��
2021/11/20,04:10,0.590,0.890,0.564,1.092,0.763,0.357,0.623,0.586,�k��,2.0,��
2021/11/20,04:20,0.593,0.890,0.565,1.094,0.766,0.359,0.624,0.585,�k�k��,1.9,��
2021/11/20,04:30,0.592,0.891,0.563,1.092,0.765,0.358,0.623,0.585,�k�k��,2.3,��
2021/11/20,04:40,0.594,0.889,0.564,1.094,0.764,0.358,0.623,0.584,�k��,2.0,��
2021/11/20,04:50,0.591,0.892,0.562,1.094,0.764,0.357,0.622,0.585,�k�k��,3.2,��
2021/11/20,05:00,0.592,0.891,0.563,1.092,0.766,0.359,0.623,0.586,�k�k��,3.1,��
2021/11/20,05:10,0.592,0.891,0.564,1.095,0.765,0.359,0.622,0.587,�k�k��,2.6,��
2021/11/20,05:20,0.591,0.891,0.564,1.093,0.765,0.358,0.623,0.585,�k��,3.1,��
2021/11/20,05:30,0.590,0.892,0.565,1.094,0.764,0.358,0.623,0.585,�k��,3.3,��
2021/11/20,05:40,0.592,0.891,0.563,1.092,0.764,0.360,0.622,0.585,�k��,3.5,��
2021/11/20,05:50,0.593,0.891,0.563,1.091,0.766,0.359,0.622,0.586,�k��,3.6,��
2021/11/20,06:00,0.594,0.890,0.564,1.093,0.766,0.359,0.624,0.584,�k��,3.9,��
2021/11/20,06:10,0.593,0.889,0.563,1.094,0.764,0.358,0.623,0.585,�k��,4.4,��
2021/11/20,06:20,0.593,0.890,0.563,1.093,0.765,0.358,0.621,0.585,�k��,4.0,��
2021/11/20,06:30,0.591,0.889,0.564,1.091,0.765,0.357,0.624,0.584,�k��,4.3,��
2021/11/20,06:40,0.590,0.887,0.565,1.092,0.765,0.358,0.623,0.583,�k��,5.0,��
2021/11/20,06:50,0.591,0.891,0.562,1.094,0.764,0.359,0.622,0.586,�k��,4.3,��
2021/11/20,07:00,0.590,0.889,0.563,1.092,0.764,0.357,0.623,0.587,�k��,4.2,��
2021/11/20,07:10,0.591,0.890,0.561,1.092,0.766,0.358,0.621,0.584,�k�k��,3.5,��
2021/11/20,07:20,0.592,0.894,0.564,1.092,0.764,0.357,0.623,0.584,�k�k��,4.3,��
2021/11/20,07:30,0.591,0.890,0.562,1.094,0.765,0.357,0.623,0.585,�k�k��,3.6,��
2021/11/20,07:40,0.590,0.893,0.564,1.093,0.766,0.357,0.624,0.585,�k�k��,3.6,��
2021/11/20,07:50,0.591,0.889,0.564,1.094,0.763,0.358,0.623,0.586,�k�k��,4.6,��
2021/11/20,08:00,0.591,0.891,0.564,1.094,0.763,0.357,0.621,0.585,�k,4.2,��
2021/11/20,08:10,0.590,0.893,0.564,1.093,0.765,0.357,0.622,0.585,�k,4.6,��
2021/11/20,08:20,0.592,0.892,0.562,1.093,0.764,0.359,0.623,0.585,�k,5.5,��
2021/11/20,08:30,0.594,0.891,0.563,1.094,0.766,0.357,0.623,0.586,�k�k��,5.6,��
2021/11/20,08:40,0.592,0.891,0.563,1.094,0.766,0.359,0.624,0.584,�k�k��,5.3,��
2021/11/20,08:50,0.594,0.891,0.563,1.095,0.766,0.360,0.623,0.587,�k�k��,4.7,��
2021/11/20,09:00,0.592,0.890,0.565,1.094,0.766,0.359,0.624,0.585,�k�k��,4.1,��
2021/11/20,09:10,0.591,0.890,0.564,1.095,0.766,0.358,0.623,0.587,�k�k��,5.3,��
2021/11/20,09:20,0.591,0.887,0.564,1.095,0.765,0.358,0.621,0.586,�k�k��,5.8,��
2021/11/20,09:30,0.591,0.888,0.564,1.095,0.766,0.358,0.622,0.586,�k�k��,5.1,��
2021/11/20,09:40,0.592,0.884,0.564,1.096,0.766,0.359,0.622,0.586,�k,5.8,��
2021/11/20,09:50,0.592,0.888,0.564,1.093,0.765,0.359,0.621,0.586,�k,7.2,��
2021/11/20,10:00,0.592,0.889,0.565,1.097,0.764,0.357,0.622,0.586,�k,7.0,��
2021/11/20,10:10,0.591,0.889,0.565,1.095,0.765,0.359,0.621,0.588,�k,7.7,��
2021/11/20,10:20,0.592,0.889,0.562,1.094,0.766,0.358,0.622,0.585,�k,6.5,��
2021/11/20,10:30,0.592,0.889,0.563,1.096,0.767,0.358,0.621,0.585,�k�k��,8.0,��
2021/11/20,10:40,0.592,0.888,0.564,1.094,0.764,0.359,0.621,0.587,�k�k��,7.4,��
2021/11/20,10:50,0.592,0.890,0.564,1.094,0.767,0.358,0.621,0.587,�k�k��,7.4,��
2021/11/20,11:00,0.591,0.888,0.562,1.096,0.765,0.356,0.622,0.586,�k,6.3,��
2021/11/20,11:10,0.592,0.888,0.563,1.095,0.766,0.357,0.620,0.585,�k�k��,6.7,��
2021/11/20,11:20,0.592,0.890,0.562,1.096,0.766,0.356,0.622,0.588,�k�k��,7.2,��
2021/11/20,11:30,0.591,0.888,0.564,1.097,0.766,0.357,0.621,0.586,�k�k��,7.3,��
2021/11/20,11:40,0.592,0.891,0.563,1.094,0.765,0.357,0.622,0.587,�k�k��,6.4,��
2021/11/20,11:50,0.592,0.890,0.564,1.093,0.766,0.358,0.622,0.587,�k�k��,5.9,��
2021/11/20,12:00,0.591,0.889,0.562,1.097,0.765,0.357,0.621,0.587,�k�k��,6.2,��
2021/11/20,12:10,0.593,0.891,0.563,1.095,0.765,0.357,0.619,0.587,�k�k��,4.7,��
2021/11/20,12:20,0.589,0.890,0.565,1.095,0.765,0.359,0.622,0.587,�k��,5.4,��
2021/11/20,12:30,0.590,0.891,0.563,1.096,0.765,0.358,0.620,0.586,�k��,4.1,��
2021/11/20,12:40,0.590,0.892,0.563,1.096,0.766,0.360,0.621,0.584,�k�k��,4.6,��
2021/11/20,12:50,0.591,0.890,0.563,1.099,0.762,0.358,0.622,0.583,�k��,4.3,��
2021/11/20,13:00,0.592,0.891,0.564,1.094,0.766,0.359,0.623,0.585,�k�k��,4.5,��
2021/11/20,13:10,0.591,0.891,0.562,1.097,0.766,0.358,0.622,0.584,�k�k��,4.7,��
2021/11/20,13:20,0.592,0.891,0.562,1.097,0.764,0.358,0.623,0.584,�k��,4.6,��
2021/11/20,13:30,0.592,0.891,0.564,1.097,0.765,0.359,0.623,0.584,�k�k��,5.0,��
2021/11/20,13:40,0.591,0.891,0.563,1.096,0.766,0.357,0.622,0.585,�k�k��,5.0,��
2021/11/20,13:50,0.591,0.892,0.562,1.095,0.766,0.359,0.622,0.585,�k�k��,5.9,��
2021/11/20,14:00,0.590,0.889,0.563,1.095,0.766,0.358,0.622,0.585,�k�k��,4.9,��
2021/11/20,14:10,0.592,0.891,0.563,1.095,0.765,0.360,0.623,0.583,�k�k��,4.7,��
2021/11/20,14:20,0.592,0.889,0.565,1.095,0.767,0.359,0.624,0.584,�k�k��,4.8,��
2021/11/20,14:30,0.592,0.892,0.565,1.097,0.768,0.358,0.624,0.584,�k��,4.4,��
2021/11/20,14:40,0.592,0.891,0.564,1.095,0.768,0.359,0.623,0.583,�k��,4.6,��
2021/11/20,14:50,0.592,0.892,0.564,1.098,0.767,0.359,0.625,0.584,�k�k��,3.9,��
2021/11/20,15:00,0.592,0.894,0.564,1.094,0.767,0.358,0.622,0.584,�k�k��,3.7,��
2021/11/20,15:10,0.591,0.895,0.564,1.096,0.767,0.358,0.625,0.586,�k�k��,3.3,��
2021/11/20,15:20,0.593,0.895,0.565,1.098,0.765,0.359,0.625,0.584,�k,3.3,��
2021/11/20,15:30,0.592,0.895,0.565,1.095,0.765,0.357,0.623,0.586,�k�k��,3.8,��
2021/11/20,15:40,0.593,0.897,0.564,1.095,0.766,0.358,0.624,0.587,�k�k��,3.0,��
2021/11/20,15:50,0.594,0.895,0.565,1.098,0.765,0.358,0.626,0.588,�k�k��,3.0,��
2021/11/20,16:00,0.592,0.895,0.563,1.096,0.766,0.359,0.624,0.587,�k�k��,2.3,��
2021/11/20,16:10,0.592,0.895,0.563,1.097,0.765,0.359,0.627,0.587,�k�k��,3.5,��
2021/11/20,16:20,0.594,0.895,0.564,1.096,0.767,0.358,0.625,0.586,�k�k��,2.9,��
2021/11/20,16:30,0.591,0.893,0.565,1.096,0.767,0.358,0.624,0.585,�k�k��,2.6,��
2021/11/20,16:40,0.593,0.895,0.565,1.096,0.769,0.358,0.626,0.587,�k�k��,3.0,��
2021/11/20,16:50,0.592,0.895,0.564,1.096,0.765,0.358,0.625,0.587,�k�k��,3.0,��
2021/11/20,17:00,0.593,0.893,0.564,1.095,0.768,0.357,0.625,0.584,�k�k��,1.9,��
2021/11/20,17:10,0.594,0.893,0.565,1.096,0.766,0.357,0.625,0.585,�k,1.7,��
2021/11/20,17:20,0.595,0.894,0.563,1.097,0.769,0.357,0.625,0.586,�k�k��,2.3,��
2021/11/20,17:30,0.592,0.894,0.564,1.095,0.769,0.358,0.623,0.585,�k�k��,1.5,��
2021/11/20,17:40,0.592,0.892,0.563,1.096,0.768,0.357,0.623,0.586,�k�k��,1.7,��
2021/11/20,17:50,0.594,0.895,0.563,1.094,0.767,0.357,0.622,0.585,�k�k��,0.9,��
2021/11/20,18:00,0.593,0.895,0.563,1.096,0.768,0.357,0.624,0.586,�k�k��,1.5,��
2021/11/20,18:10,0.592,0.892,0.564,1.093,0.767,0.359,0.623,0.585,�k��,1.5,��
2021/11/20,18:20,0.593,0.892,0.563,1.098,0.767,0.357,0.622,0.585,�k��,2.5,��
2021/11/20,18:30,0.590,0.893,0.564,1.097,0.767,0.357,0.623,0.585,�k��,2.8,��
2021/11/20,18:40,0.593,0.893,0.562,1.098,0.768,0.356,0.623,0.587,�k��,2.6,��
2021/11/20,18:50,0.592,0.892,0.565,1.095,0.767,0.356,0.623,0.586,�k��,2.0,��
2021/11/20,19:00,0.593,0.894,0.564,1.094,0.768,0.357,0.624,0.584,�k��,2.0,��
2021/11/20,19:10,0.593,0.894,0.564,1.095,0.769,0.356,0.623,0.585,�k��,2.0,��
2021/11/20,19:20,0.591,0.893,0.566,1.095,0.767,0.357,0.623,0.586,�k��,1.4,��
2021/11/20,19:30,0.593,0.895,0.561,1.096,0.767,0.358,0.624,0.587,�k��,1.9,��
2021/11/20,19:40,0.593,0.893,0.563,1.095,0.765,0.357,0.625,0.585,�k��,2.0,��
2021/11/20,19:50,0.593,0.893,0.562,1.097,0.768,0.356,0.623,0.586,�k��,2.0,��
2021/11/20,20:00,0.592,0.893,0.564,1.095,0.767,0.357,0.623,0.585,�k��,2.0,��
2021/11/20,20:10,0.592,0.892,0.562,1.096,0.768,0.356,0.622,0.584,���k��,2.2,��
2021/11/20,20:20,0.591,0.892,0.563,1.095,0.768,0.357,0.623,0.586,�k��,2.3,��
2021/11/20,20:30,0.593,0.892,0.562,1.095,0.767,0.358,0.623,0.586,�k��,1.9,��
2021/11/20,20:40,0.591,0.894,0.562,1.096,0.768,0.358,0.622,0.586,�k��,2.0,��
2021/11/20,20:50,0.592,0.893,0.562,1.097,0.765,0.358,0.622,0.586,�k��,2.3,��
2021/11/20,21:00,0.592,0.892,0.563,1.096,0.766,0.357,0.622,0.585,�k��,2.3,��
2021/11/20,21:10,0.591,0.893,0.563,1.096,0.766,0.356,0.623,0.586,�k��,2.5,��
2021/11/20,21:20,0.592,0.894,0.563,1.095,0.765,0.357,0.621,0.584,�k��,2.8,��
2021/11/20,21:30,0.592,0.893,0.564,1.094,0.767,0.357,0.623,0.585,�k��,2.5,��
2021/11/20,21:40,0.592,0.892,0.562,1.096,0.765,0.358,0.622,0.586,�k��,2.2,��
2021/11/20,21:50,0.591,0.892,0.561,1.096,0.767,0.357,0.623,0.586,���k��,2.0,��
2021/11/20,22:00,0.590,0.895,0.564,1.096,0.766,0.356,0.622,0.585,���k��,2.2,��
2021/11/20,22:10,0.593,0.891,0.564,1.097,0.768,0.357,0.622,0.583,���k��,2.2,��
2021/11/20,22:20,0.592,0.893,0.562,1.095,0.766,0.358,0.623,0.584,���k��,2.2,��
2021/11/20,22:30,0.591,0.894,0.563,1.095,0.766,0.356,0.622,0.586,���k��,2.3,��
2021/11/20,22:40,0.590,0.891,0.564,1.097,0.767,0.357,0.622,0.585,���k��,2.2,��
2021/11/20,22:50,0.592,0.892,0.561,1.096,0.769,0.357,0.621,0.584,���k��,1.9,��
2021/11/20,23:00,0.592,0.892,0.561,1.094,0.765,0.358,0.622,0.587,���k��,2.0,��
2021/11/20,23:10,0.592,0.891,0.563,1.098,0.768,0.358,0.622,0.586,���k��,2.3,��
2021/11/20,23:20,0.592,0.894,0.562,1.097,0.767,0.357,0.622,0.585,���k��,2.5,��
2021/11/20,23:30,0.591,0.891,0.563,1.097,0.767,0.357,0.622,0.585,��,2.6,��
2021/11/20,23:40,0.591,0.893,0.562,1.097,0.766,0.358,0.622,0.585,��,1.8,��
2021/11/20,23:50,0.592,0.890,0.562,1.097,0.765,0.357,0.622,0.584,���k��,1.7,��
